Dewpoint
35 35 36 37 38 38 39 40 40 41 41 39 38 38 38 41 42 42 42 42 45 47 47 50 59 63 63 65 65 64 64 64 63 61 57 55 54 54 54 54 54 55 58
36 36 37 37 38 38 39 40 41 41 42 43 40 38 37 38 40 42 42 41 40 41 47 46 51 58 62 63 64 63 62 62 63 60 57 55 55 54 55 55 55 55 55
37 37 37 38 39 40 40 41 42 42 42 43 44 40 40 40 40 41 42 43 43 42 44 46 47 52 61 62 63 63 62 60 62 62 57 53 52 53 54 55 56 55 55
38 38 39 39 39 40 41 43 45 44 43 44 44 40 39 38 38 39 39 41 43 44 43 42 47 47 54 58 62 63 62 61 59 61 59 56 53 50 50 54 55 56 55
38 38 39 39 39 40 41 43 43 47 45 44 45 43 40 39 39 40 40 40 40 41 43 45 43 47 48 57 60 59 61 60 58 59 58 58 56 55 52 51 53 56 56
38 38 39 39 39 40 40 40 42 43 47 46 46 43 41 40 40 41 41 41 42 43 42 44 45 45 49 49 57 58 58 59 59 59 58 57 56 54 54 52 52 52 54
38 38 38 38 39 39 39 39 40 41 45 46 45 45 44 42 41 41 41 41 41 42 44 45 46 46 48 50 49 54 57 58 59 59 58 58 57 56 55 54 52 53 54
38 38 38 38 39 39 39 39 39 41 43 45 46 41 43 45 45 44 43 42 41 41 42 45 46 47 47 51 53 53 54 56 58 59 59 58 58 57 56 55 53 52 52
38 38 37 38 38 38 38 39 39 40 41 42 44 46 43 43 46 45 44 43 42 41 42 44 47 48 48 50 52 52 53 53 56 58 59 58 58 58 57 57 55 53 51
38 38 38 37 38 38 37 38 38 39 39 40 42 44 45 43 42 43 43 43 42 42 43 44 47 48 49 50 52 51 52 53 55 56 57 57 57 58 57 57 56 55 53
38 38 37 37 37 36 36 36 37 37 37 38 39 40 42 44 42 41 42 42 42 43 43 43 45 46 49 49 50 50 51 52 54 56 57 57 57 57 57 57 57 56 55
38 37 35 35 35 35 33 32 33 34 36 35 36 37 39 41 44 40 41 42 43 43 43 43 45 46 48 49 49 50 51 51 53 54 56 56 57 56 57 57 56 56 55
37 35 35 34 34 32 29 29 30 31 33 34 35 37 38 38 40 43 45 42 43 43 43 44 48 45 47 49 49 50 50 51 51 53 54 53 53 54 56 56 56 56 56
36 34 34 34 33 29 26 27 28 30 32 33 35 35 36 37 39 42 44 47 44 43 43 43 43 44 47 47 48 49 49 50 51 52 53 54 53 53 53 54 55 55 56
35 34 33 33 30 23 24 25 28 29 31 31 34 34 36 37 40 43 45 49 48 46 45 45 48 48 48 49 50 49 49 49 49 51 53 55 55 54 54 54 54 54 54
34 33 33 32 25 21 22 24 27 28 29 29 32 34 35 37 40 45 47 46 45 45 45 45 45 45 46 44 47 49 51 50 51 51 52 54 55 55 55 55 55 55 54
34 33 33 31 21 21 22 23 26 28 28 28 28 31 33 35 38 39 39 39 40 40 39 39 39 39 40 42 44 47 50 52 51 52 52 53 51 53 55 55 54 54 55
33 33 33 30 20 21 22 24 26 27 27 26 26 28 31 34 36 37 37 36 36 36 36 36 37 37 38 40 43 46 48 51 49 49 50 49 46 46 48 50 54 55 55
34 34 33 29 20 21 23 25 26 27 26 25 25 26 28 31 32 34 35 35 35 34 34 34 35 35 37 39 41 46 47 43 42 43 44 44 43 44 45 48 47 44 44
34 34 34 26 21 22 23 25 25 25 26 24 24 25 26 26 27 30 33 35 34 33 33 32 32 34 35 38 39 42 42 40 39 40 42 42 41 41 42 41 41 39 39
35 35 33 28 21 22 23 24 25 24 26 25 24 24 25 24 26 27 27 28 31 32 31 30 30 31 34 35 37 38 37 37 36 36 37 39 39 39 39 39 38 37 37
35 36 34 30 22 22 22 23 23 25 26 24 22 23 23 24 25 26 26 25 25 25 26 26 26 27 28 32 34 36 36 36 35 35 36 36 34 34 33 32 33 32 33
37 36 34 31 24 22 22 21 23 25 24 23 21 21 22 24 25 25 25 25 25 25 24 25 25 26 27 28 29 31 33 32 31 31 31 30 29 29 28 29 29 29 28
37 36 34 32 29 21 21 22 23 25 24 22 21 20 22 23 25 25 26 26 26 25 25 25 25 25 26 27 28 28 28 28 27 28 27 27 27 27 27 27 27 27 27
36 36 35 33 31 23 21 22 23 24 23 22 21 20 20 24 25 26 25 25 27 26 25 24 25 24 25 26 27 28 28 27 27 26 25 25 25 24 24 25 25 26 25
34 36 35 34 32 25 22 22 23 24 23 21 21 20 20 20 22 24 25 27 26 26 26 26 25 25 26 26 27 27 27 27 26 24 23 23 23 23 23 23 23 25 24
Wind_Speed
16 17 21 23 24 22 21 19 20 19 18 18 14 16 21 16 15 17 20 18 18 20 21 19 19 19 20 18 20 19 20 19 14 10 7 9 12 18 19 18 19 18 19
19 21 23 21 20 21 24 23 22 20 18 16 14 16 12 15 17 17 18 22 26 25 23 23 20 22 20 21 20 20 18 16 15 14 5 7 11 11 15 18 18 21 17
21 23 23 23 23 22 22 23 25 25 22 22 18 17 11 10 14 13 14 17 19 21 21 23 21 21 21 23 23 22 23 20 16 21 8 5 8 11 7 18 16 18 18
20 22 24 23 25 25 24 24 27 25 22 22 19 21 21 23 19 18 18 17 17 22 24 25 20 22 22 24 23 21 23 22 21 10 17 6 5 7 10 9 19 20 21
18 23 24 23 24 22 23 23 25 23 23 22 20 20 20 19 17 15 18 19 20 22 23 23 24 23 22 22 23 24 23 22 23 19 9 20 9 7 3 9 12 14 18
17 18 20 21 23 24 23 25 24 25 25 22 21 22 22 22 17 16 16 17 17 19 23 25 26 25 22 23 22 24 25 24 22 23 21 18 17 14 9 7 9 17 14
14 18 21 23 24 27 27 25 24 25 22 24 18 19 21 22 23 20 18 18 19 20 22 21 23 24 22 22 21 21 22 25 24 23 21 18 19 14 17 13 8 8 12
13 16 18 19 20 23 25 26 25 23 22 21 23 21 19 19 20 20 20 19 20 21 21 22 23 24 24 20 20 20 22 22 22 23 20 21 21 20 20 20 16 14 12
14 17 18 17 18 19 21 22 23 24 21 20 20 23 21 19 18 18 16 18 21 22 22 23 24 24 23 21 20 21 20 22 22 21 19 18 18 18 18 17 19 18 16
15 16 18 17 16 17 18 18 19 20 20 21 19 19 22 20 18 18 18 19 20 20 22 22 25 24 22 20 20 20 18 20 20 20 20 20 20 17 15 16 16 16 19
15 14 14 14 15 16 17 19 18 19 20 21 22 20 20 22 19 18 17 20 20 19 20 23 23 23 20 21 22 20 18 22 20 19 20 21 19 17 14 16 17 18 18
14 12 13 15 16 15 16 18 19 20 17 20 21 20 19 20 16 16 19 19 20 19 20 21 21 20 20 20 23 20 19 21 21 20 18 19 14 18 17 18 20 19 20
14 14 14 15 17 17 17 17 20 19 19 20 20 19 19 18 16 16 14 18 19 20 18 10 23 23 16 17 18 18 19 21 22 22 20 19 20 21 18 19 20 19 19
12 12 13 15 16 16 16 15 19 18 18 21 21 21 21 21 19 17 16 16 17 17 17 15 15 14 17 17 18 19 19 19 19 18 19 20 21 22 22 21 23 21 20
10 12 11 14 15 16 15 17 16 18 17 20 21 22 22 21 19 15 12 12 10 12 12 12 13 15 16 8 13 19 20 20 20 19 18 20 22 24 23 21 22 21 21
10 10 10 12 14 15 16 17 16 19 18 18 20 22 22 23 20 14 7 12 15 16 14 11 9 8 6 16 10 8 15 18 19 20 18 18 23 28 31 31 28 24 23
8 7 8 10 12 13 14 17 16 17 17 18 19 20 20 21 21 18 18 18 16 15 15 14 13 13 14 22 16 14 11 14 16 17 14 9 3 5 15 26 32 32 31
7 7 7 7 9 10 12 12 13 14 16 18 19 19 20 19 18 18 17 16 13 15 14 15 15 14 16 24 19 14 9 4 5 5 5 6 3 3 5 12 18 24 22
7 6 4 5 4 8 10 10 13 12 12 16 18 19 17 17 17 19 17 16 16 16 16 15 15 17 18 25 23 9 12 15 14 11 13 10 12 13 9 6 10 12 11
9 8 5 4 3 5 6 8 11 12 14 14 15 16 17 16 15 12 11 13 12 13 12 15 15 17 16 28 27 15 16 18 15 14 14 21 18 18 17 15 10 13 11
13 10 8 7 6 3 1 5 8 11 11 9 10 13 14 13 14 14 14 10 7 7 10 13 14 17 21 23 27 25 18 15 16 14 14 17 19 19 18 18 13 11 7
12 13 11 9 7 6 3 1 3 6 8 7 9 10 12 11 12 13 13 14 12 13 13 13 13 15 16 22 23 23 20 17 16 13 13 16 19 20 20 17 16 15 11
15 13 14 10 8 8 6 4 3 4 5 3 5 7 11 11 10 12 12 12 12 11 12 11 12 13 15 15 19 19 18 19 16 14 17 17 15 15 16 19 18 17 15
14 14 14 12 11 11 9 6 3 3 2 1 3 4 6 10 10 9 9 10 11 10 9 10 10 10 12 13 14 14 12 14 13 13 14 15 16 17 15 16 17 15 14
12 14 17 15 13 11 10 9 7 5 4 4 2 3 5 6 7 8 8 10 9 10 9 9 9 10 11 11 13 12 11 10 11 11 11 12 12 13 13 12 13 12 12
12 14 18 16 14 13 13 12 9 7 6 5 3 2 3 5 5 6 5 7 9 10 12 11 9 8 12 11 11 15 14 14 12 11 12 12 12 12 11 10 9 8 10
Wind_Direction
337 343 346 340 334 328 321 313 307 300 297 287 257 248 246 245 246 244 247 249 245 239 236 234 226 221 220 216 213 217 216 217 216 220 232 227 221 207 205 202 207 201 206
346 340 331 324 318 314 309 307 300 293 284 270 258 241 236 233 236 240 240 242 246 245 240 234 228 224 222 221 218 213 218 216 198 212 190 220 233 232 230 205 208 210 208
336 331 327 325 318 314 310 305 296 286 280 273 264 246 240 249 242 242 246 238 240 245 244 246 229 227 217 218 218 214 215 220 205 204 189 187 213 209 211 226 216 216 212
338 329 326 323 322 320 316 312 310 283 272 265 259 237 241 244 240 236 242 244 239 240 241 243 248 231 228 225 217 213 217 220 217 210 220 197 171 196 208 227 221 218 216
340 329 324 322 318 320 321 323 319 319 280 260 252 247 243 244 242 233 234 238 245 247 245 240 240 240 232 226 222 222 222 223 224 215 196 219 212 190 121 227 211 214 224
331 323 322 326 329 332 332 331 327 327 332 278 250 237 238 242 243 238 237 242 247 250 244 239 234 236 234 224 221 224 223 226 229 224 220 212 211 208 200 207 219 214 227
329 330 335 336 337 338 332 331 332 328 330 336 279 260 247 244 245 242 240 243 246 247 248 240 236 233 232 227 220 223 222 219 223 225 220 219 220 206 211 211 219 219 230
334 328 330 331 333 335 333 329 331 331 335 342 331 296 268 255 250 243 238 241 246 249 250 248 237 234 230 220 214 216 224 222 217 225 226 230 229 225 218 220 222 235 242
321 321 317 318 320 321 330 330 329 331 335 336 329 326 301 261 251 247 239 240 243 249 251 247 237 231 226 221 214 220 226 232 228 221 213 211 219 218 211 210 209 221 244
299 305 305 305 306 311 316 324 331 333 331 330 330 319 316 286 250 242 240 237 242 243 254 259 238 231 224 216 214 223 224 226 226 224 219 216 224 209 201 201 208 219 228
293 295 304 313 311 312 321 323 323 334 337 333 327 324 320 317 273 246 248 249 252 251 252 257 250 238 222 216 214 216 219 225 228 219 217 221 218 212 206 210 218 226 226
290 300 311 318 310 318 327 322 332 332 328 336 326 321 321 318 330 268 244 237 238 242 249 252 258 225 225 215 214 211 215 222 223 220 213 222 222 227 211 207 214 222 226
294 309 323 326 322 329 321 332 329 327 335 338 334 330 326 322 326 311 305 255 245 246 254 254 247 238 232 222 220 217 220 220 226 223 213 217 228 233 228 225 221 220 228
280 301 319 324 324 324 329 326 319 335 341 341 336 336 332 331 321 310 305 304 259 249 258 258 257 256 240 225 223 221 220 222 221 223 217 216 217 223 229 234 232 230 231
289 301 321 322 329 329 337 332 328 340 339 347 345 343 338 337 327 309 311 327 312 269 258 265 278 259 249 253 244 218 218 221 226 226 221 222 220 221 222 224 230 231 233
288 300 319 323 332 338 344 334 340 344 340 345 352 350 351 353 352 0 11 40 43 40 46 45 31 24 14 358 326 280 233 222 222 231 235 231 228 223 221 219 221 216 222
270 290 311 324 330 340 343 341 346 343 347 349 355 359 0 6 9 20 42 42 43 51 49 41 34 27 12 351 331 290 253 238 229 230 230 230 152 233 238 234 231 226 223
269 287 299 317 322 332 342 343 353 353 354 354 356 359 7 15 16 26 40 46 48 50 49 40 32 27 13 356 335 293 251 200 147 144 149 152 147 27 272 257 242 233 237
241 235 256 290 300 330 343 350 354 1 4 3 360 355 360 12 17 31 30 33 40 45 42 37 31 24 16 10 359 277 151 114 94 84 96 89 71 36 39 131 108 78 69
214 222 227 240 270 320 350 350 351 359 8 7 6 358 360 14 9 15 37 46 44 45 37 33 22 20 17 23 26 47 112 103 92 81 67 72 68 60 50 65 73 79 55
213 212 206 224 237 228 349 358 344 350 342 1 14 23 15 16 11 13 18 26 41 60 54 44 28 22 18 23 37 46 55 78 83 72 63 66 63 61 60 65 62 65 57
219 212 220 227 215 202 190 258 319 316 336 359 19 38 36 39 28 21 21 29 30 41 37 36 35 28 26 27 33 45 61 66 75 71 65 69 69 64 61 59 60 56 53
231 217 221 232 227 215 209 227 257 307 333 23 41 48 52 49 43 42 34 34 32 34 37 38 36 27 18 23 34 42 55 66 72 72 75 73 70 66 59 56 54 50 46
241 218 214 231 238 216 214 222 221 280 319 25 29 50 87 68 66 60 48 49 45 42 38 42 41 36 34 29 23 26 41 58 66 66 67 67 65 60 57 48 44 46 45
268 225 221 227 238 218 224 214 208 201 201 187 157 114 106 114 85 69 70 67 55 64 63 54 39 48 44 39 47 47 53 61 72 72 66 56 52 50 45 44 42 37 31
275 241 229 229 233 214 216 208 206 202 202 199 203 177 127 116 143 120 92 74 72 62 65 68 78 49 54 50 60 61 61 62 69 62 61 56 52 49 42 37 29 23 20